Regional Weather Roundup
Issued by NWS

Home | Current Version | Previous Version | Graphics & Text | Print | Product List | Glossary On
Versions: 1 2 3 4 5 6 7 8 9 10 11 12 13 14 15 16 17 18 19 20 21 22 23 24 25 26 27
000
ASUS45 KBOI 201710
RWRID

IDAHO REGIONAL WEATHER ROUNDUP
NATIONAL WEATHER SERVICE BOISE ID
1000 AM MST TUE FEB 20 2018

NOTE: "FAIR" INDICATES FEW OR NO CLOUDS BELOW 12000 FEET
WITH NO SIGNIFICANT WEATHER AND/OR OBSTRUCTIONS TO VISIBILITY

IDZ012-014-201800-
SOUTHWEST IDAHO


CITY           SKY/WX    TMP DP  RH WIND       PRES   REMARKS
BOISE          SUNNY     16   4  59 CALM      30.18R
CALDWELL       SUNNY     20   3  48 MISG      30.22S
MOUNTAIN HOME  SUNNY     17   3  54 NW9       30.17R WCI   6
$$

IDZ016-017-201800-
SOUTHCENTRAL IDAHO


CITY           SKY/WX    TMP DP  RH WIND       PRES   REMARKS
BURLEY         MOSUNNY   10   1  67 W14       30.08R WCI  -6
JEROME         SUNNY     15   1  53 SW16      30.10R WCI  -1
TWIN FALLS     SUNNY      9   2  73 SW13      30.10R WCI  -7
$$

IDZ019>023-201800-
SOUTHEAST IDAHO


CITY           SKY/WX    TMP DP  RH WIND       PRES   REMARKS
IDAHO FALLS    CLOUDY    10   3  73 SW17G23   30.02R WCI  -8
POCATELLO      LGT SNOW  12   5  73 SW24      30.06R WCI  -8
REXBURG        FLURRIES  10   5  80 SW8       29.99R WCI  -2
$$

IDZ006-010-011-018-031-032-201800-
CENTRAL IDAHO MOUNTAINS


CITY           SKY/WX    TMP DP  RH WIND       PRES   REMARKS
MCCALL         SUNNY     -4  -6  91 CALM      29.97R
HAILEY         LGT SNOW   9   5  85 SE7       29.96R WCI  -3
STANLEY          N/A     -9 -14  78 N5        29.89R WCI -20
SALMON         CLOUDY    14   2  58 W3        30.05R
CHALLIS        SUNNY     14  -3  47 CALM      29.94S
$$

IDZ002-004-006-007-026-201800-
NORTHERN IDAHO


CITY           SKY/WX    TMP DP  RH WIND       PRES   REMARKS
LEWISTON       MOSUNNY   19   9  65 E5        30.26S WCI  12
LOWELL           N/A     22  13  68 CALM      30.28F
COEUR D`ALENE  CLOUDY     7   4  87 N6        30.18S WCI  -3
MULLAN PASS    CLOUDY    -1  -5  82 S5        29.85R WCI -11
$$




USA.gov is the U.S. government's official web portal to all federal, state and local government web resources and services.